Wind_Speed
16 22 20 20 16 17 17 17 17 16 14 13 13 12 11 10 9 9 9 7 7 6 9 9 11 12 12 12 11 9 10 11 11 11 11 11 11 10 10 9 6 7 8
25 24 21 21 18 17 17 17 17 17 14 12 12 11 10 9 8 8 9 9 9 7 8 8 10 14 14 12 10 10 10 10 10 12 12 12 11 9 9 10 11 8 8
29 24 19 18 17 16 17 16 15 15 13 13 10 6 8 8 8 9 10 10 9 11 15 9 13 16 13 10 10 11 11 11 11 11 12 11 10 9 8 7 7 5 7
29 24 21 21 19 17 17 16 15 13 14 11 9 8 8 7 9 10 10 11 8 9 15 15 14 13 11 11 12 11 11 11 11 12 11 10 10 8 7 7 4 4 3
27 26 22 21 20 18 18 16 15 15 13 12 11 10 8 9 10 11 11 11 10 10 10 11 10 10 10 11 11 10 10 10 10 10 10 10 8 6 9 9 5 2 2
25 25 23 21 20 19 18 17 16 14 13 12 10 12 10 10 10 11 12 13 11 10 9 9 9 10 10 10 9 8 8 7 7 8 8 10 9 8 8 8 10 11 11
24 23 22 21 21 19 17 16 16 16 14 12 14 13 12 11 11 11 12 12 11 10 10 10 11 11 10 8 6 5 5 5 8 8 7 8 7 6 8 10 13 14 16
23 23 19 19 19 17 15 14 15 16 16 16 16 14 12 11 11 10 10 11 10 10 10 11 10 9 8 6 5 5 5 6 7 6 6 6 6 6 8 10 11 11 11
21 21 21 20 18 16 14 13 14 15 17 17 17 13 13 11 10 10 9 9 9 10 9 9 8 6 6 6 5 5 6 6 7 7 7 6 6 7 9 12 12 12 12
21 22 22 20 18 16 14 13 14 16 14 18 17 14 14 13 9 8 8 8 8 10 8 9 6 5 5 5 6 6 7 6 6 7 6 6 7 10 11 11 11 10 11
18 21 22 21 20 18 15 15 15 16 17 17 16 15 15 14 11 9 7 8 8 9 7 7 5 5 5 6 6 6 6 5 5 5 7 7 10 9 9 10 10 10 11
17 18 21 22 21 19 18 16 17 18 18 18 18 18 18 16 14 13 11 9 9 10 8 7 6 6 5 4 4 3 3 3 4 7 8 8 10 10 9 10 8 10 10
16 18 19 20 22 21 19 18 19 20 20 19 19 20 19 17 15 15 14 12 11 12 11 9 7 6 5 4 3 3 3 3 5 8 8 8 9 8 7 9 8 8 9
16 18 19 21 21 23 22 22 21 22 22 22 22 22 22 19 16 15 18 16 14 14 13 11 9 8 6 4 3 3 3 5 7 10 8 10 10 8 8 9 8 8 8
16 18 22 22 23 25 26 25 24 24 25 24 23 23 24 21 18 16 19 18 16 15 14 12 12 10 8 6 4 3 4 7 9 10 8 9 9 9 9 9 7 7 7
18 18 18 23 26 27 26 28 27 27 27 26 26 26 25 24 21 19 20 19 17 16 14 13 13 11 9 7 5 5 6 8 10 10 11 8 8 9 8 7 7 7 6
21 21 23 22 24 28 29 28 28 31 30 29 29 28 28 28 26 23 23 22 20 18 17 16 15 13 11 9 7 7 8 10 11 11 11 10 9 8 8 7 7 6 6
20 21 25 28 26 29 28 30 31 32 33 32 31 30 30 30 29 27 26 24 22 21 19 19 18 16 13 10 9 9 10 11 12 12 12 11 11 11 9 8 6 6 5
24 25 23 25 27 29 29 31 33 32 35 35 34 33 32 32 32 31 30 27 25 24 22 22 20 17 15 12 10 11 11 12 13 14 13 13 12 12 10 9 8 6 4
21 21 25 28 26 30 29 27 28 29 34 36 38 36 35 34 33 33 33 31 29 28 27 25 23 20 17 14 12 11 11 12 14 15 15 14 13 13 12 10 9 7 5
23 24 23 27 31 28 26 25 28 31 33 32 39 39 37 36 35 34 36 35 34 34 32 29 27 22 17 18 13 7 7 10 13 16 17 16 16 14 14 13 12 9 8
22 23 26 26 27 33 29 29 28 29 28 32 32 39 39 38 38 37 39 38 38 36 34 34 33 26 18 23 9 5 3 4 11 16 18 18 18 17 16 15 14 12 10
15 18 20 25 27 29 31 29 26 24 25 23 27 32 42 42 42 41 42 43 41 38 40 40 39 36 27 29 21 7 3 5 4 11 17 19 19 19 19 17 15 13 11
12 9 10 15 21 27 27 27 27 27 26 29 30 33 32 41 42 43 43 44 44 43 44 45 43 43 33 25 25 20 9 7 3 3 9 15 19 20 20 18 16 14 11
18 15 14 9 12 18 23 27 29 29 29 29 30 29 29 35 40 42 44 45 46 47 48 48 45 42 42 28 29 16 16 10 8 3 3 6 14 17 18 18 16 13 11
23 22 18 13 10 6 12 18 25 25 24 23 30 29 30 34 37 40 42 44 46 47 49 51 49 46 44 38 33 25 22 10 9 6 2 4 8 12 20 19 16 14 13
Wind_Direction
169 160 166 161 160 160 158 157 157 154 152 149 139 131 132 131 129 126 119 107 104 118 140 144 140 122 116 103 95 94 95 95 95 92 87 87 85 83 81 79 81 87 87
162 161 172 162 158 159 158 157 158 155 153 152 140 130 128 125 121 121 120 115 106 129 146 146 138 125 111 105 99 96 95 94 93 89 86 84 80 77 88 83 72 91 82
161 161 170 165 166 164 162 161 163 163 163 149 143 137 125 119 114 118 122 122 101 73 133 127 122 111 106 102 100 99 96 91 89 92 84 78 73 74 87 85 75 119 95
160 159 162 167 164 171 171 167 167 165 160 155 145 142 125 113 113 119 122 121 121 103 99 102 103 103 101 101 106 103 100 97 92 95 87 80 76 67 65 63 80 107 129
162 164 163 167 165 172 169 167 165 165 163 156 164 147 138 128 124 126 130 133 135 151 113 109 105 100 101 110 111 108 102 101 105 99 90 87 74 61 60 64 62 88 100
164 167 164 170 173 178 178 173 174 173 170 168 168 153 145 136 132 133 137 147 143 124 115 111 111 110 107 112 114 113 106 101 114 113 94 87 65 55 50 52 62 63 56
167 168 166 175 183 187 182 181 180 177 175 178 165 156 151 146 141 138 135 134 135 127 119 115 111 110 109 114 118 115 112 101 130 127 108 93 72 59 70 76 74 67 68
170 170 169 182 191 183 177 180 183 181 182 178 173 163 158 152 147 143 137 134 129 126 122 120 118 118 125 120 119 121 120 110 131 132 117 99 78 70 98 90 78 71 66
173 174 177 187 188 183 182 181 179 177 177 176 180 180 170 168 157 151 146 136 133 127 135 124 125 129 119 116 111 117 127 125 125 127 123 112 90 101 104 92 83 76 74
175 182 187 192 186 188 185 183 177 167 184 190 181 187 182 177 173 162 152 147 146 141 151 138 147 137 124 112 113 120 125 127 124 121 118 114 117 103 97 90 83 77 75
178 186 192 194 195 196 193 188 181 180 192 185 191 194 189 184 180 178 185 166 162 155 153 160 158 151 130 114 117 121 123 128 127 122 118 123 110 98 96 90 83 80 79
185 191 197 200 202 202 201 196 194 192 200 196 197 193 197 197 196 191 204 191 173 161 171 181 176 166 156 134 132 130 138 143 139 134 132 141 112 103 97 94 86 84 84
193 198 202 204 209 208 208 206 205 204 203 203 201 200 202 207 210 210 204 198 186 184 188 192 182 185 187 180 173 162 157 157 153 150 140 155 116 111 104 97 101 92 86
206 208 209 214 217 218 218 216 214 211 211 211 209 210 209 211 215 214 206 203 198 196 197 195 191 192 195 197 192 180 168 160 154 156 151 161 131 119 112 112 106 96 89
225 218 219 217 215 224 224 224 223 219 219 219 217 215 214 214 214 208 203 207 207 205 202 199 197 194 195 199 206 199 183 168 163 167 147 174 154 132 128 122 113 103 94
226 227 224 223 224 227 229 230 227 228 226 225 224 221 219 218 216 211 208 209 211 211 209 206 203 199 199 204 207 201 191 175 172 172 169 159 172 150 137 130 121 110 106
233 226 222 221 225 230 233 237 235 233 231 229 230 227 225 223 220 216 216 214 214 215 211 205 201 203 203 206 206 197 188 183 181 178 181 179 167 167 143 140 130 123 119
253 237 233 226 222 228 228 236 238 239 234 233 233 231 229 228 226 222 220 218 217 217 213 208 205 202 202 204 204 198 193 190 191 188 187 187 184 176 169 154 145 129 118
257 250 243 233 226 225 224 230 236 238 238 237 237 235 233 230 228 226 226 223 219 216 213 210 205 207 206 203 201 201 196 197 199 197 194 190 189 188 187 185 194 188 163
258 252 248 244 234 231 229 227 230 230 241 237 238 236 234 232 228 227 229 228 221 217 213 210 210 206 210 202 192 197 199 202 205 204 200 199 199 200 200 202 208 214 219
263 257 250 242 238 231 221 222 226 224 231 230 239 239 236 232 228 226 228 226 222 218 215 212 207 207 199 192 168 183 200 210 211 211 208 205 208 209 211 216 220 227 237
274 267 259 251 245 238 225 220 219 224 231 230 235 237 237 236 231 225 226 224 221 218 213 212 210 202 203 193 171 146 191 210 218 212 210 212 213 216 218 222 226 231 241
291 283 272 262 256 246 234 225 219 224 227 230 231 233 237 235 233 226 225 224 221 218 216 216 215 214 195 198 196 168 150 220 164 212 215 215 217 219 219 221 226 234 247
1 334 299 274 259 252 245 222 216 219 225 226 227 230 232 234 230 230 228 226 223 220 218 219 218 216 213 197 201 216 200 152 176 190 223 220 219 220 220 218 223 236 246
17 11 12 341 279 259 249 233 227 222 226 226 226 230 230 236 230 229 227 227 226 222 221 221 220 215 217 212 198 191 210 199 185 149 173 199 222 221 218 219 224 235 244
3 6 2 354 359 307 259 249 237 240 236 228 227 229 231 236 235 229 226 227 227 224 222 223 224 222 220 220 219 209 192 180 192 168 163 181 204 204 211 222 231 237 241
Height
801 804 808 810 814 816 818 820 823 825 827 829 831 832 834 835 836 837 838 839 839 840 841 842 843 844 845 846 846 847 847 847 848 848 847 848 849 848 848 848 848 849 848
799 803 808 811 814 817 819 821 823 826 828 830 832 834 835 836 837 838 839 840 842 841 842 843 844 845 846 848 848 848 848 849 849 849 849 849 850 850 850 850 850 851 850
799 804 808 811 814 817 820 822 824 826 828 831 834 835 836 837 838 838 840 841 843 842 843 845 845 847 848 849 849 850 850 851 851 851 850 851 852 851 851 851 851 851 851
800 805 809 812 815 818 820 822 824 826 829 831 834 836 837 838 839 840 841 843 844 844 845 846 847 847 849 850 851 851 851 852 852 852 852 852 853 853 853 852 852 852 852
801 805 809 813 816 818 820 822 824 827 829 832 834 836 838 840 841 841 843 844 845 845 846 847 848 849 850 851 852 852 852 853 853 853 853 854 854 855 854 853 853 852 852
802 806 809 813 816 818 820 823 825 827 830 832 834 837 839 841 842 843 844 844 845 846 847 848 849 850 851 852 853 853 853 854 854 855 855 856 856 856 856 855 854 852 852
804 807 811 814 816 818 820 823 825 828 830 833 835 837 840 841 843 844 845 845 846 847 848 850 850 851 853 853 854 854 854 854 854 856 856 857 857 857 857 856 855 854 854
806 809 812 815 817 818 820 822 824 827 830 832 835 837 840 842 843 845 846 847 848 848 849 850 852 852 853 853 854 854 855 855 855 856 857 858 858 858 858 857 857 856 856
807 810 813 815 817 819 820 822 824 826 829 832 834 837 839 842 843 845 846 847 849 850 851 852 853 853 853 853 854 854 855 856 856 856 857 858 858 858 858 857 857 858 857
806 810 813 815 817 819 820 822 824 827 830 832 834 836 839 841 843 844 845 847 849 851 852 852 852 853 854 854 855 855 855 856 857 857 858 858 859 858 858 859 858 858 858
806 809 812 814 816 818 820 822 824 827 829 832 834 837 839 840 842 844 845 847 849 850 852 853 853 854 854 855 856 856 856 856 856 857 858 859 859 859 859 859 860 859 858
805 808 810 813 815 817 819 821 823 825 828 830 832 835 837 839 840 842 844 846 848 849 851 852 853 853 854 855 856 857 856 857 857 857 858 859 859 859 860 859 861 860 860
805 807 809 812 814 816 818 819 821 823 825 828 830 833 835 838 839 841 844 845 847 848 850 850 852 853 853 854 854 855 855 856 857 857 858 859 860 860 861 859 861 862 860
805 806 808 810 812 814 816 818 819 821 823 826 827 830 832 835 837 839 841 843 845 846 848 849 850 851 852 853 853 854 854 855 856 857 859 858 859 860 861 860 861 862 861
803 804 805 807 809 810 812 815 818 818 821 823 825 827 830 832 834 836 838 841 843 844 846 847 848 849 850 851 852 853 853 854 855 857 859 859 859 860 861 860 861 862 862
800 801 804 804 805 807 808 810 813 816 816 819 821 824 827 829 831 833 836 838 841 843 844 846 847 848 848 849 850 852 853 853 854 856 857 859 859 860 861 861 861 861 862
793 796 797 800 802 803 803 806 808 811 812 814 816 820 823 825 827 829 832 834 837 840 841 843 844 846 847 847 849 850 851 852 853 854 857 858 858 859 860 861 860 860 861
790 789 790 793 796 797 799 800 802 805 807 808 811 814 817 820 823 826 828 830 833 836 838 840 841 843 844 845 846 848 849 850 852 852 853 855 856 857 858 860 860 860 860
783 784 785 787 789 791 792 794 797 799 802 803 805 808 811 814 817 820 823 826 829 831 834 837 839 840 841 842 843 846 847 848 850 851 852 853 855 855 856 857 858 858 858
777 778 779 781 782 785 788 790 793 794 795 797 798 800 803 806 810 814 817 821 824 826 829 832 835 836 837 839 841 844 845 846 848 849 850 852 853 854 854 854 856 856 857
771 772 773 773 775 778 781 784 786 786 787 789 790 793 795 798 802 806 810 814 816 819 822 827 829 832 834 835 839 843 843 843 844 846 848 848 850 851 852 852 852 853 854
767 768 768 768 770 771 773 775 778 780 781 781 784 785 788 790 793 797 800 805 809 813 816 819 822 825 829 831 834 839 841 843 842 842 843 844 846 847 848 849 850 850 851
763 763 763 763 764 765 767 769 771 774 776 778 779 780 779 781 783 787 791 795 801 806 808 811 814 817 820 824 826 829 836 831 837 838 839 840 842 843 844 845 846 848 848
761 759 758 757 757 759 761 764 765 766 767 768 769 771 772 772 775 780 783 787 792 797 800 802 806 809 813 815 822 822 822 824 829 835 837 837 838 839 841 841 843 844 845
760 757 756 754 753 753 755 758 758 757 758 760 762 765 767 767 769 772 775 778 782 786 790 794 798 802 805 808 810 814 820 821 822 825 829 834 835 836 838 839 840 841 842
759 756 754 753 752 751 751 752 754 755 755 756 756 757 758 759 761 764 768 771 773 776 780 783 788 793 798 801 804 806 808 813 816 818 822 826 828 829 830 835 837 837 838